Regional Weather Roundup
Issued by NWS

Home | Current Version | Previous Version | Graphics & Text | Print | Product List | Glossary On
Versions: 1 2 3 4 5 6 7 8 9 10 11 12 13 14 15 16 17 18 19 20 21 22 23 24 25 26 27 28 29 30 31 32 33 34 35 36 37 38 39 40 41 42 43 44 45 46 47 48 49 50
711
ASUS43 KLOT 240608
RWRIL

ILLINOIS REGIONAL WEATHER ROUNDUP
NATIONAL WEATHER SERVICE CHICAGO/ROMEOVILLE IL
100 AM CDT FRI MAR 24 2017

NOTE: "FAIR" INDICATES FEW OR NO CLOUDS BELOW 12,000 FEET WITH NO
SIGNIFICANT WEATHER AND/OR OBSTRUCTIONS TO VISIBILITY.

* THESE STATIONS ARE NOT UNDER NWS QUALITY CONTROL. THEY ALSO MAY NOT
  REPORT WEATHER SUCH AS PRECIPITATION OR FOG.

ILZ001-002-007-009-015-016-024-240700-
NORTHWEST ILLINOIS

CITY           SKY/WX    TMP DP  RH WIND       PRES   REMARKS
MOLINE         PTCLDY    48  40  73 VRB5      29.88F
6HR MIN TEMP:  41; 6HR MAX TEMP:  48;

STERLING*      CLOUDY    42  36  79 SE5       29.92F
SAVANNA*       PTCLDY    43  36  75 SE8       29.91S
$$

ILZ003-004-008-010-011-017-018-240700-
NORTH CENTRAL ILLINOIS

CITY           SKY/WX    TMP DP  RH WIND       PRES   REMARKS
ROCKFORD       CLOUDY    44  34  67 S15       29.95F
6HR MIN TEMP:  43; 6HR MAX TEMP:  45; 6HR PCP: TRACE;

FREEPORT*      PTCLDY    41  34  76 SE9       29.94F
ROCHELLE*      PTCLDY    43  35  72 S10       29.94F
DE KALB*       PTCLDY    43  34  69 SE13      29.96F
PERU*          CLOUDY    43  37  78 S12       29.96F
$$

ILZ005-006-012>014-019>023-240700-
NORTHEAST ILLINOIS

CITY           SKY/WX    TMP DP  RH WIND       PRES   REMARKS
CHICAGO-OHARE  CLOUDY    44  33  65 S8        29.98F
6HR MIN TEMP:  44; 6HR MAX TEMP:  50; 6HR PCP:  0.02;

CHICAGO-MIDWAY CLOUDY    48  33  56 S9        30.00F
6HR MIN TEMP:  48; 6HR MAX TEMP:  51; 6HR PCP: TRACE;

AURORA         CLOUDY    45  34  65 SE12      29.96F
6HR MIN TEMP:  45; 6HR MAX TEMP:  48; 6HR PCP: TRACE;

LANSING*       PTCLDY    45  36  69 CALM      30.02R
JOLIET*        CLOUDY    49  37  63 S9        29.99F
WAUKEGAN       CLOUDY    46  34  62 S17       29.94F
6HR MIN TEMP:  39; 6HR MAX TEMP:  46; 6HR PCP:  0.03;

DUPAGE AIRPORT CLOUDY    45  34  65 S10       29.97F
6HR MIN TEMP:  42; 6HR MAX TEMP:  48; 6HR PCP:  0.01;

KANKAKEE*      CLOUDY    46  36  66 S12       30.00F
WHEELING       PTCLDY    45  34  65 S9        29.99F
6HR MIN TEMP:  43; 6HR MAX TEMP:  49; 6HR PCP:  0.02;

MORRIS*        MOCLDY    44  35  70 CALM      29.97F
ROMEOVILLE*    CLOUDY    46  38  76 S12       29.99F
NORTHERLY ISL    N/A     48  30  50 S7          N/A
$$

LMZ740>746-240700-
SOUTHERN LAKE MICHIGAN

STATION/POSITION SKY/WX   TEMP    WIND        PRES    VSBY  WAVE
                          AIR SEA DIR/SP/G                  HT/PER
                          (F)     (DEG/KT/KT) (MB)    (MI)  (FT/S)
HARRISON CRIB              48     160/ 11/ 12   N/A
BURNHAM HARBOR             48     170/  5/  9   N/A
CALUMET HARBOR                    140/  3/  4 1015.7S
BURNS HARBOR               50     200/  8/ 15 1017.6R
MICHIGAN CITY              49     170/  7/  8   N/A
$$

ILZ025>027-034>036-040-047-049-050-058-095>099-240700-
WEST-CENTRAL ILLINOIS

CITY           SKY/WX    TMP DP  RH WIND       PRES   REMARKS
QUINCY         MOCLDY    58  46  64 S12       29.89F
GALESBURG*     CLOUDY    48  42  80 S13       29.89F
MACOMB*        PTCLDY    49  44  84 S10       29.93F
JACKSONVILLE*  CLOUDY    51  42  73 S8        29.95S
PITTSFIELD*    CLOUDY    61  48  63 S15       29.93S
$$

ILZ028>032-037-038-041>044-048-051>054-059>061-240700-
CENTRAL ILLINOIS

CITY           SKY/WX    TMP DP  RH WIND       PRES   REMARKS
PONTIAC        PTCLDY    47  39  73 S16       29.98S
BLOOMINGTON    PTCLDY    46  39  76 S21       29.97F
DECATUR        CLOUDY    48  40  73 S14G25    30.00F
PEORIA         CLOUDY    46  40  79 S13       29.96F
6HR MIN TEMP:  44; 6HR MAX TEMP:  47;

LACON*         CLOUDY    50  40  69 S13G18    29.93F
LINCOLN*       CLOUDY    47  42  83 S10       29.98F
SPRINGFIELD    CLOUDY    50  42  74 S17       29.97F
6HR MIN TEMP:  47; 6HR MAX TEMP:  50;

TAYLORVILLE    CLOUDY    48  41  76 S16G23    29.99F
$$

ILZ033-039-045-046-055>057-062-063-240700-
EAST-CENTRAL ILLINOIS

CITY           SKY/WX    TMP DP  RH WIND       PRES   REMARKS
CHAMPAIGN      CLOUDY    49  38  65 S17       30.01F
RANTOUL*       CLEAR     48  40  74 S14       30.00F
MATTOON        CLEAR     49  41  74 S15       30.01F
PARIS*         CLEAR     51  41  68 S17       30.04F
$$

ILZ079-100>102-240700-
SOUTHWEST ILLINOIS

CITY           SKY/WX    TMP DP  RH WIND       PRES   REMARKS
ALTON          CLEAR     48  42  80 SE10      29.98F
BELLEVILLE     CLEAR     49  44  83 SE8       29.99F
CAHOKIA*       CLEAR     52  42  69 SE7       29.98F
SPARTA*        CLEAR     51  43  75 SE9       30.02F
$$

ILZ064>066-069>071-074>076-080>082-084>086-088>090-092>094-240700-
SOUTH-CENTRAL ILLINOIS

CITY           SKY/WX    TMP DP  RH WIND       PRES   REMARKS
CARBONDALE     CLEAR     56  46  69 S10       30.04F
6HR MIN TEMP:  48; 6HR MAX TEMP:  58;

CAIRO*         CLEAR     61  49  65 SE7       30.07F
EFFINGHAM*     CLEAR     50  43  77 SE13      30.05F
MARION         CLEAR     59  46  63 S12       30.06F
MT. VERNON     CLEAR     51  43  74 S5        30.06F
CENTRALIA*     CLEAR     52  44  76 SE13      30.03F
SALEM*         CLEAR     52  43  72 SE9G16    30.05F
METROPOLIS*    CLEAR     53  45  74 SE3       30.09F
$$

ILZ067-068-072-073-078-083-087-091-240700-
SOUTHEAST ILLINOIS

CITY           SKY/WX    TMP DP  RH WIND       PRES   REMARKS
LAWRENCEVILLE  CLEAR     52  43  71 S12       30.09F
FLORA*         CLEAR     48  43  81 S9        30.07F
FAIRFIELD*     CLEAR     52  44  74 SE5       30.06F
HARRISBURG*    CLEAR     49  45  85 SE6       30.08F
ROBINSON*      CLEAR     52  41  67 S13       30.09F
CARMI*         CLEAR     46  43  88 SE8       30.09S
$$

ABBREVIATIONS USED IN REMARKS
   TC - TEMPERATURE IN CELSIUS
  WCI - WIND CHILL INDEX
   HX - HEAT INDEX
  VSB - VISIBILITY
$$





USA.gov is the U.S. government's official web portal to all federal, state and local government web resources and services.